Location: *
(51.1248°S, 108.4023°W)
Time: 04:40:23
(UTC+00:00)

IRAS Rocket - Pass Details

Date: 15 June 2021
Orbit: 847 x 878 km, 100.1° (Epoch: 31 July)

Event Time Altitude Azimuth Distance (km) Brightness Sun altitude
Rises 13:32:38 0° 166° (SSE) 3,484 7.4 -15.2°
Reaches altitude 10° 13:35:04 10° 170° (S) 2,546 6.6 -14.8°
Maximum altitude 13:40:33 54° 245° (WSW) 1,068 4.4 -14.0°
Drops below altitude 10° 13:46:02 10° 320° (NW) 2,537 6.5 -13.2°
Sets 13:48:27 0° 324° (NW) 3,472 7.2 -12.9°
